Wednesday, October 22, 2014
22:25 UTC
  |  Log In   |  Register Free
Airport Search:

Clayton Municipal Airport
(11A)

Clayton Municipal Airport Diagram
No Airport Diagram Available

FAA data valid effective September 18, 2014 - November 13, 2014 (unless otherwise noted).

 
 
 
 
 
 
 
 
 
 
 
 
 
 

Current Aviation Weather for Clayton Municipal Airport (11A)

METAR data is unavailable for 11A. The nearest METAR location is at KEUF (18.6 nm NE from 11A).

The most recent METAR observation for KEUF was updated at: 2211
METAR Summary (Translated METAR)
KEUF
222158Z AUTO 00000KT 10SM CLR 22/06 A3004 RMK AO2 SLP169 T02170061 $
(18.6 nm NE from 11A)
KTOI
222153Z AUTO 01006KT 10SM CLR 22/06 A3006 RMK AO2 SLP176 T02220056
(26.9 nm SW from 11A)
TAF Summary (Translated TAF)
KTOI
(45.3 nm SW from KEUF)
221726Z 2218/2318 01007KT P6SM SKC FM230000 00000KT P6SM SKC
  Airport Weather Conditions for 11A

Current weather conditions are
not available for 11A


The nearest NOAA weather station
is at EUF, (18.6 nm NE from 11A)
  
 Current Weather at EUF
71° F
Fair
North winds at 0.0 mph
EUF NOAA Radar

Pressure: 30.04 in
Humidity: 36%
Wind: Calm
Dew Point: 43.0°F
Visibility: 10.00 mi


Airport Weather Forecast for 11A

Translated METAR and TAF for KEUF
Translated METAR for KEUF (2220 UTC 22 October 2014)
found at http://aviationweather.gov/adds/metars/
 
METAR text: KEUF 222158Z AUTO 00000KT 10SM CLR 22/06 A3004 RMK AO2 SLP169 T02170061 $
Conditions at: KEUF (EUFAULA , AL, US) observed 2158 UTC 22 October 2014
Temperature: 21.7°C (71°F)
Dewpoint: 6.1°C (43°F) [RH = 36%]
Pressure (altimeter): 30.04 inches Hg (1017.4 mb)
[Sea-level pressure: 1016.9 mb]
Winds: calm
Visibility: 10 or more miles (16+ km)
Ceiling: at least 12,000 feet AGL
Clouds: sky clear below 12,000 feet AGL
Weather:
SOME DATA ABOVE MAY BE INACCURATE!!!
"$" is an indication the sensor requires maintenance
Translated TAF for KEUF

There is no translated TAF available for this airport

Find All Airport Services Find A Hotel Find A Rental Car Find A Golf Course Find A Restaurant $100 Hamburger



FBO's on the Field
FBO Company Facility Photos Services Transportation Aviation Fuel Prices: Prices include tax
Catering Weather Repair Courtesy Rental Type 100LL JetA JetA+ MOGAS 8087
 
Add another FBO Facility Photos Catering Weather Repair Courtesy Rental Type 100LL JetA JetA+ MOGAS 8087
Services Transportation Aviation Fuel Prices: Prices include tax
There are no FBO's currently reporting fuel at 11A. List your FBO now


model-print
model-print
model-print
model-print